This is the latest recevied weather packets stored in our database for station/object vk4zu-13. If no packets are shown the sender has not sent any weather packets the latest 10 day(s).
| Time | Temp. | Humidity | Pressure | Rain* | Wind** | Luminosity | Snow |
|---|---|---|---|---|---|---|---|
| 1777424155 | 23.89° C | 69% | 1025.2 hPa | 0 mm | - | 272 W/m² | - |
| 1777424093 | 23.33° C | 68% | 1025.2 hPa | 0 mm | - | 250 W/m² | - |
| 1777424024 | 23.33° C | 68% | 1025.2 hPa | 0 mm | - | 239 W/m² | - |
| 1777423956 | 23.33° C | 68% | 1025.3 hPa | 0 mm | - | 230 W/m² | - |
| 1777423884 | 23.33° C | 68% | 1025.3 hPa | 0 mm | - | 199 W/m² | - |
| 1777423815 | 23.33° C | 68% | 1025.1 hPa | 0 mm | - | 174 W/m² | - |
| 1777423745 | 23.89° C | 67% | 1025.2 hPa | 0 mm | - | 160 W/m² | - |
| 1777423675 | 23.89° C | 67% | 1025.2 hPa | 0 mm | - | 171 W/m² | - |
| 1777423606 | 23.89° C | 68% | 1025.2 hPa | 0 mm | - | 211 W/m² | - |
| 1777423546 | 23.89° C | 66% | 1025.2 hPa | 0 mm | - | 188 W/m² | - |
| 1777423487 | 23.89° C | 68% | 1025.2 hPa | 0 mm | - | 188 W/m² | - |
| 1777423426 | 23.89° C | 66% | 1025.1 hPa | 0 mm | - | 188 W/m² | - |
| 1777423364 | 23.89° C | 66% | 1025.2 hPa | 0 mm | - | 185 W/m² | - |
| 1777423301 | 23.89° C | 66% | 1025.2 hPa | 0 mm | - | 179 W/m² | - |
| 1777423247 | 23.89° C | 65% | 1025.2 hPa | 0 mm | - | 169 W/m² | - |
| 1777423178 | 24.44° C | 65% | 1025.3 hPa | 0 mm | - | 141 W/m² | - |
| 1777423108 | 24.44° C | 65% | 1025.2 hPa | 0 mm | - | 135 W/m² | - |
| 1777423038 | 24.44° C | 65% | 1025.2 hPa | 0 mm | - | 141 W/m² | - |
| 1777422969 | 24.44° C | 65% | 1025.2 hPa | 0 mm | - | 232 W/m² | - |
| 1777422903 | 24.44° C | 65% | 1025.2 hPa | 0 mm | - | 232 W/m² | - |
| 1777422842 | 24.44° C | 64% | 1025.3 hPa | 0 mm | - | 232 W/m² | - |
| 1777422782 | 24.44° C | 67% | 1025.2 hPa | 0 mm | - | 315 W/m² | - |
| 1777422723 | 25° C | 64% | 1025.2 hPa | 0 mm | - | 315 W/m² | - |
| 1777422664 | 25° C | 65% | 1025.3 hPa | 0 mm | - | 846 W/m² | - |
| 1777422597 | 25° C | 66% | 1025.3 hPa | 0 mm | - | 846 W/m² | - |
* Rain latest hour (hover to see other rain measurements)
** Current wind speed in m/s (hover to see current wind gust speed)